Ralph Wien Memorial Airport Kotzebue US
ICAO: PAOT
IATA:
Category: Medium
Scheduled Services:

Elevation: 14 ft
TransAlt. 18000 ft.

Airport Communications:
ASOS:135.45
ATIS:135.45
ANCHORAGE CNTR:119.2
CTAF:123.6
KOTZEBUE RDO:122.2
TWEB:115.7
UNICOM:122.8

PAOT Zoom In..

If you have problems with the map follow the link
https://www.worldairports.se/pages/airport.php?
ICAO=PAOT

Runways:

(A) RW 09 length 5900 ft width 150 ft
ILS 110.70 / hdg 87

(B) RW 18 length 3876 ft width 90 ft
---- / hdg 179

(C) RW 27 length 5900 ft width 150 ft
---- / hdg 267

(D) RW 36 length 3876 ft width 90 ft
---- / hdg 359

Location; PAOT
Day. 19 / Time. 13.24 Zulu
* Altimeter: 29.48
* Temperature: -02° c. -28.4°f.
* Wind from: 090° Speed 05 kn.
Dewpoint: -03° c.
Visibility: 3/4 Statute Miles.
Conditions: Light Snow.Conditions: Mist.

PAOT 191324Z AUTO 09005KT 3/4SM R09/3000VP6000FT -SN BR VV010 M02/M03 A2948 RMK AO2 P0003 T10171028 TSNO


Wind From 090°
Speed 05 kn.

 
 
jpsmedia.com for Web Design worldairports.se 2018   terms of use